This demonstration page uses our WeatherBlox Daily Observations layout. Learn more.

Left ArrowRight Arrow

Hourly Observations for March 31, 2021

Temp ( °F °C ) Dew Point ( °F °C ) Humidity (%) Winds ( mph kmh ) Pressure ( in mb ) Visibility ( mi km ) Precip ( " mm )
12:51 am 00:51 Clear 56 13.3 12 -11.1 17 17 N 10 17 29.95 1014 10 16 N/A
1:51 am 01:51 Clear 53 11.7 14 -10 21 21 WSW 9 15 29.97 1015 10 16 N/A
2:51 am 02:51 Clear 52 11.1 14 -10 22 22 N 6 9 29.99 1016 10 16 N/A
3:51 am 03:51 Clear 47 8.3 12 -11.1 24 24 SSE 8 13 30.02 1017 10 16 N/A
4:51 am 04:51 Clear 48 8.9 12 -11.1 23 23 ESE 6 9 30.06 1018 10 16 N/A
5:51 am 05:51 Clear 47 8.3 10 -12.2 22 22 N N/A 30.09 1019 10 16 N/A
6:51 am 06:51 Sunny 50 10 10 -12.2 20 20 N N/A 30.13 1020 10 16 N/A
7:51 am 07:51 Sunny 58 14.4 10 -12.2 15 15 N N/A 30.14 1021 10 16 N/A
8:51 am 08:51 Sunny 62 16.7 9 -12.8 12 12 N N/A 30.15 1021 10 16 N/A
9:51 am 09:51 Sunny 69 20.6 3 -16.1 7 7 E 9 15 30.16 1021 10 16 N/A
10:51 am 10:51 Sunny 72 22.2 8 -13.3 8 8 SE 9 15 30.15 1021 10 16 N/A
11:51 am 11:51 Sunny 75 23.9 7 -13.9 7 7 NE 9 15 30.11 1020 10 16 N/A
12:51 pm 12:51 Sunny 75 23.9 10 -12.2 8 8 VRB 5 7 30.08 1019 10 16 N/A
1:51 pm 13:51 Sunny 77 25 9 -12.8 7 7 ESE 8 13 30.06 1018 10 16 N/A
2:51 pm 14:51 Sunny 79 26.1 8 -13.3 6 6 S 6 9 30.02 1017 10 16 N/A
3:51 pm 15:51 Sunny 80 26.7 7 -13.9 6 6 VRB 5 7 30.01 1016 10 16 N/A
4:51 pm 16:51 Sunny 82 27.8 4 -15.6 5 5 E 12 19 30.01 1016 10 16 N/A
5:51 pm 17:51 Sunny 80 26.7 2 -16.7 5 5 SE 14 22 30.02 1017 10 16 N/A
6:51 pm 18:51 Clear 75 23.9 3 -16.1 6 6 ESE 12 19 30.04 1017 10 16 N/A
7:51 pm 19:51 Clear 69 20.6 3 -16.1 7 7 E 10 17 30.06 1018 10 16 N/A
8:51 pm 20:51 Clear 67 19.4 7 -13.9 9 9 E 10 17 30.08 1019 10 16 N/A
9:51 pm 21:51 Clear 66 18.9 9 -12.8 10 10 E 6 9 30.09 1019 10 16 N/A
10:51 pm 22:51 Clear 63 17.2 12 -11.1 13 13 ESE 8 13 30.10 1019 10 16 N/A
11:51 pm 23:51 Clear 63 17.2 14 -10 15 15 ESE 9 15 30.11 1020 10 16 N/A

Powered by AerisWeather